Weather History for Eureka, NU

Change the Weather History Date:

Friday, November 22, 2013

  Actual Average Record
Temperature  
Mean Temperature -34 °F -  
Max Temperature -29 °F -23 °F 19 °F (1996)
Min Temperature -38 °F -36 °F -38 °F (2013)
Degree Days  
Heating Degree Days 98    
Moisture  
Dew Point -41 °F    
Average Humidity 58    
Maximum Humidity 68    
Minimum Humidity 38    
Precipitation  
Precipitation 0.00 in 0.00 in - ()
Sea Level Pressure  
Sea Level Pressure 30.20 in    
Wind  
Wind Speed 2 mph ()    
Max Wind Speed 5 mph    
Max Gust Speed -    
Visibility 15.0 miles    
Events Snow    
Averages and records for this station are not official NWS values.
T = Trace of Precipitation, MM = Missing Value Source: Averaged Metar Reports

Daily Weather History Graph

Daily Weather History Graph

Search for Another Location

Airport:

Trip Planner

Search our weather history database for the weather conditions in past years. The results will help you decide how hot, cold, wet, or windy it might be!

Date:

Astronomy

Dec. 31, 1969 Rise Set
Actual Time Sun does not rise Sun does not rise
Civil Twilight Sun does not rise Sun does not rise
Nautical Twilight 9:08 AM CST 1:50 PM CST
Astronomical Twilight 6:14 AM CST 4:43 PM CST
Moon No Moon Rise No Moon Set
Length of Visible Light 0h 00m
Length of Day
0h 00m
Waning Gibbous, 78% of the Moon is Illuminated
Nov 22
Waning Gibbous
Nov 25
Last Quarter
Dec 2
New
Dec 9
First Quarter
Dec 17
Full

Hourly Weather History & Observations

Time (CST) Temp. Windchill Dew Point Humidity Pressure Visibility Wind Dir Wind Speed Gust Speed Precip Events Conditions
12:00 AM -26 °F - -36 °F 42% 30.09 in 15 mi SE 4.6 mph - - Snow Snow
12:00 AM -25.6 °F -39.8 °F -34.6 °F 63% 30.09 in 15.0 mi SE 4.6 mph - N/A   Partly Cloudy
1:00 AM -27.4 °F - -38.2 °F 57% 30.10 in 15.0 mi Calm Calm - N/A   Partly Cloudy
2:00 AM -27.4 °F - -36.4 °F 62% 30.12 in 15.0 mi South 2.3 mph - N/A   Clear
3:00 AM -29.2 °F - -40.0 °F 56% 30.12 in 15.0 mi Calm Calm - N/A   Clear
4:00 AM -31.0 °F - -40.0 °F 62% 30.13 in 15.0 mi Calm Calm - N/A   Clear
5:00 AM -31.0 °F - -41.8 °F 56% 30.14 in 15.0 mi Calm Calm - N/A   Clear
6:00 AM -31 °F - -41 °F 38% 30.15 in 15 mi Calm Calm - - Snow Snow
6:00 AM -31.0 °F - -41.8 °F 56% 30.15 in 15.0 mi East 2.3 mph - N/A   Clear
7:00 AM -32.8 °F - -40.0 °F 68% 30.16 in 15.0 mi SE 2.3 mph - N/A   Clear
8:00 AM -31.0 °F - -40.0 °F 62% 30.18 in 15.0 mi SSE 2.3 mph - N/A   Clear
9:00 AM -32.8 °F -45.3 °F -41.8 °F 62% 30.19 in 15.0 mi ESE 3.5 mph - N/A   Clear
10:00 AM -31.0 °F - -40.0 °F 62% 30.20 in 15.0 mi Calm Calm - N/A   Clear
11:00 AM -34.6 °F - -43.6 °F 61% 30.21 in 15.0 mi Calm Calm - N/A   Clear
12:00 PM -34 °F - -43 °F 40% 30.22 in 15 mi East 2.3 mph - - Snow Snow
12:00 PM -34.6 °F - -43.6 °F 61% 30.22 in 15.0 mi East 2.3 mph - N/A   Clear
1:00 PM -36.4 °F - -43.6 °F 67% 30.23 in 15.0 mi Calm Calm - N/A   Clear
2:00 PM -32.8 °F - -41.8 °F 62% 30.25 in 15.0 mi NE 2.3 mph - N/A   Clear
3:00 PM -32.8 °F - -41.8 °F 62% 30.25 in 15.0 mi Calm Calm - N/A   Clear
4:00 PM -36.4 °F - -45.4 °F 61% 30.26 in 15.0 mi Calm Calm - N/A   Clear
5:00 PM -32.8 °F - -43.6 °F 56% 30.28 in 15.0 mi ESE 2.3 mph - N/A   Clear
6:00 PM -33 °F - -41 °F 45% 30.29 in 15 mi East 2.3 mph - - Snow Snow
6:00 PM -32.8 °F - -41.8 °F 62% 30.29 in 15.0 mi East 2.3 mph - N/A   Clear
7:00 PM -38.2 °F - -45.4 °F 67% 30.30 in 15.0 mi Calm Calm - N/A   Clear
8:00 PM -32.8 °F - -41.8 °F 62% 30.31 in 15.0 mi Calm Calm - N/A   Clear
9:00 PM -32.8 °F - -41.8 °F 62% 30.32 in 15.0 mi Calm Calm - N/A   Clear